Time,TemperatureF,DewpointF,PressureIn,WindDirection,WindDirectionDegrees,WindSpeedMPH,WindSpeedGustMPH,Humidity,HourlyPrecipIn,Conditions,Clouds,dailyrainin,SoftwareType,DateUTC
2013-05-14 00:01:00,56.0,31.0,-100.00,SW,220,5.0,10.0,38,0.00,,,-99.99,,2013-05-14 06:01:00,
2013-05-14 00:12:00,56.0,31.0,-100.00,SW,220,5.0,10.0,38,0.00,,,-99.99,,2013-05-14 06:12:00,
2013-05-14 00:22:00,56.0,31.0,-100.00,SW,220,5.0,10.0,38,0.00,,,-99.99,,2013-05-14 06:22:00,
2013-05-14 00:31:00,56.0,31.0,-100.00,SW,220,5.0,10.0,38,0.00,,,-99.99,,2013-05-14 06:31:00,
2013-05-14 01:01:00,56.0,34.0,-100.00,SW,233,6.0,9.0,43,0.00,,,0.00,,2013-05-14 07:01:00,
2013-05-14 01:11:00,56.0,34.0,-100.00,SW,233,6.0,9.0,43,0.00,,,0.00,,2013-05-14 07:11:00,
2013-05-14 01:21:00,56.0,34.0,-100.00,SW,233,6.0,9.0,43,0.00,,,0.00,,2013-05-14 07:21:00,
2013-05-14 01:31:00,56.0,34.0,-100.00,SW,233,6.0,9.0,43,0.00,,,0.00,,2013-05-14 07:31:00,
2013-05-14 01:52:00,56.0,33.0,-100.00,SW,226,6.0,12.0,42,0.00,,,0.00,,2013-05-14 07:52:00,
2013-05-14 02:02:00,56.0,33.0,-100.00,SW,226,6.0,12.0,42,0.00,,,0.00,,2013-05-14 08:02:00,
2013-05-14 02:11:00,56.0,33.0,-100.00,SW,226,6.0,12.0,42,0.00,,,0.00,,2013-05-14 08:11:00,
2013-05-14 02:21:00,56.0,33.0,-100.00,SW,226,6.0,12.0,42,0.00,,,0.00,,2013-05-14 08:21:00,
2013-05-14 02:31:00,56.0,33.0,-100.00,SW,226,6.0,12.0,42,0.00,,,0.00,,2013-05-14 08:31:00,
2013-05-14 03:01:00,56.0,33.0,-100.00,SW,224,6.0,9.0,41,0.00,,,0.00,,2013-05-14 09:01:00,
2013-05-14 03:11:00,56.0,33.0,-100.00,SW,224,6.0,9.0,41,0.00,,,0.00,,2013-05-14 09:11:00,
2013-05-14 03:21:00,56.0,33.0,-100.00,SW,224,6.0,9.0,41,0.00,,,0.00,,2013-05-14 09:21:00,
2013-05-14 03:32:00,56.0,33.0,-100.00,SW,224,6.0,9.0,41,0.00,,,0.00,,2013-05-14 09:32:00,
2013-05-14 04:04:00,53.0,32.0,-100.00,South,182,4.0,9.0,44,0.00,,,0.00,,2013-05-14 10:04:00,
2013-05-14 04:14:00,53.0,32.0,-100.00,South,182,4.0,9.0,44,0.00,,,0.00,,2013-05-14 10:14:00,
2013-05-14 04:25:00,53.0,32.0,-100.00,South,182,4.0,9.0,44,0.00,,,0.00,,2013-05-14 10:25:00,
2013-05-14 04:32:00,53.0,32.0,-100.00,South,182,4.0,9.0,44,0.00,,,0.00,,2013-05-14 10:32:00,
2013-05-14 05:02:00,53.0,31.0,-100.00,SW,217,4.0,9.0,43,0.00,,,0.00,,2013-05-14 11:02:00,
2013-05-14 05:11:00,53.0,31.0,-100.00,SW,217,4.0,9.0,43,0.00,,,0.00,,2013-05-14 11:11:00,
2013-05-14 05:21:00,53.0,31.0,-100.00,SW,217,4.0,9.0,43,0.00,,,0.00,,2013-05-14 11:21:00,
2013-05-14 05:32:00,53.0,31.0,-100.00,SW,217,4.0,9.0,43,0.00,,,0.00,,2013-05-14 11:32:00,
2013-05-14 06:02:00,53.0,32.0,-100.00,SSW,212,4.0,6.0,44,0.00,,,0.00,,2013-05-14 12:02:00,
2013-05-14 06:12:00,53.0,32.0,-100.00,SSW,212,4.0,6.0,44,0.00,,,0.00,,2013-05-14 12:12:00,
2013-05-14 06:21:00,53.0,32.0,-100.00,SSW,212,4.0,6.0,44,0.00,,,0.00,,2013-05-14 12:21:00,
2013-05-14 06:31:00,53.0,32.0,-100.00,SSW,212,4.0,6.0,44,0.00,,,0.00,,2013-05-14 12:31:00,
2013-05-14 06:52:00,54.0,33.0,-100.00,SW,216,3.0,6.0,44,0.00,,,0.00,,2013-05-14 12:52:00,
2013-05-14 07:01:00,54.0,33.0,-100.00,SW,216,3.0,6.0,44,0.00,,,-99.99,,2013-05-14 13:01:00,
2013-05-14 07:11:00,54.0,33.0,-100.00,SW,216,3.0,6.0,44,0.00,,,-99.99,,2013-05-14 13:11:00,
2013-05-14 07:22:00,54.0,33.0,-100.00,SW,216,3.0,6.0,44,0.00,,,-99.99,,2013-05-14 13:22:00,
2013-05-14 07:32:00,54.0,33.0,-100.00,SW,216,3.0,6.0,44,0.00,,,-99.99,,2013-05-14 13:32:00,
2013-05-14 08:01:00,63.0,35.0,-100.00,WSW,247,6.0,9.0,35,0.00,,,0.00,,2013-05-14 14:01:00,
2013-05-14 08:22:00,63.0,35.0,-100.00,WSW,247,6.0,9.0,35,0.00,,,0.00,,2013-05-14 14:22:00,
2013-05-14 08:31:00,63.0,35.0,-100.00,WSW,247,6.0,9.0,35,0.00,,,0.00,,2013-05-14 14:31:00,
2013-05-14 09:01:00,67.0,36.0,-100.00,WSW,256,9.0,12.0,32,0.00,,,0.00,,2013-05-14 15:01:00,
2013-05-14 09:12:00,67.0,36.0,-100.00,WSW,256,9.0,12.0,32,0.00,,,0.00,,2013-05-14 15:12:00,
2013-05-14 09:21:00,67.0,36.0,-100.00,WSW,256,9.0,12.0,32,0.00,,,0.00,,2013-05-14 15:21:00,
2013-05-14 09:32:00,67.0,36.0,-100.00,WSW,256,9.0,12.0,32,0.00,,,0.00,,2013-05-14 15:32:00,
2013-05-14 09:53:00,71.0,35.0,-100.00,WSW,251,8.0,14.0,27,0.00,,,0.00,,2013-05-14 15:53:00,
2013-05-14 10:02:00,71.0,35.0,-100.00,WSW,251,8.0,14.0,27,0.00,,,0.00,,2013-05-14 16:02:00,
2013-05-14 10:12:00,71.0,35.0,-100.00,WSW,251,8.0,14.0,27,0.00,,,0.00,,2013-05-14 16:12:00,
2013-05-14 10:23:00,71.0,35.0,-100.00,WSW,251,8.0,14.0,27,0.00,,,0.00,,2013-05-14 16:23:00,
2013-05-14 10:33:00,71.0,35.0,-100.00,WSW,251,8.0,14.0,27,0.00,,,0.00,,2013-05-14 16:33:00,
2013-05-14 11:03:00,74.0,33.0,-100.00,West,264,6.0,14.0,22,0.00,,,0.00,,2013-05-14 17:03:00,
2013-05-14 11:13:00,74.0,33.0,-100.00,West,264,6.0,14.0,22,0.00,,,0.00,,2013-05-14 17:13:00,
2013-05-14 11:24:00,74.0,33.0,-100.00,West,264,6.0,14.0,22,0.00,,,0.00,,2013-05-14 17:24:00,
2013-05-14 11:32:00,74.0,33.0,-100.00,West,264,6.0,14.0,22,0.00,,,0.00,,2013-05-14 17:32:00,
2013-05-14 12:02:00,78.0,32.0,-100.00,WNW,288,4.0,10.0,19,0.00,,,0.00,,2013-05-14 18:02:00,
2013-05-14 12:12:00,78.0,32.0,-100.00,WNW,288,4.0,10.0,19,0.00,,,0.00,,2013-05-14 18:12:00,
2013-05-14 12:22:00,78.0,32.0,-100.00,WNW,288,4.0,10.0,19,0.00,,,0.00,,2013-05-14 18:22:00,
2013-05-14 12:31:00,78.0,32.0,-100.00,WNW,288,4.0,10.0,19,0.00,,,0.00,,2013-05-14 18:31:00,
2013-05-14 12:52:00,80.0,28.0,-100.00,NW,304,4.0,12.0,15,0.00,,,0.00,,2013-05-14 18:52:00,
2013-05-14 13:01:00,80.0,28.0,-100.00,NW,304,4.0,12.0,15,0.00,,,0.00,,2013-05-14 19:01:00,
2013-05-14 13:11:00,80.0,28.0,-100.00,NW,304,4.0,12.0,15,0.00,,,0.00,,2013-05-14 19:11:00,
2013-05-14 13:21:00,80.0,28.0,-100.00,NW,304,4.0,12.0,15,0.00,,,0.00,,2013-05-14 19:21:00,
2013-05-14 13:31:00,80.0,28.0,-100.00,NW,304,4.0,12.0,15,0.00,,,0.00,,2013-05-14 19:31:00,
2013-05-14 13:52:00,82.0,30.0,-100.00,ESE,119,5.0,16.0,15,0.00,,,0.00,,2013-05-14 19:52:00,
2013-05-14 14:02:00,82.0,30.0,-100.00,ESE,119,5.0,16.0,15,0.00,,,0.00,,2013-05-14 20:02:00,
2013-05-14 14:11:00,82.0,30.0,-100.00,ESE,119,5.0,16.0,15,0.00,,,0.00,,2013-05-14 20:11:00,
2013-05-14 14:22:00,82.0,30.0,-100.00,ESE,119,5.0,16.0,15,0.00,,,0.00,,2013-05-14 20:22:00,
2013-05-14 14:32:00,82.0,30.0,-100.00,ESE,119,5.0,16.0,15,0.00,,,0.00,,2013-05-14 20:32:00,
2013-05-14 15:03:00,72.0,33.0,-100.00,South,172,11.0,22.0,24,0.00,,,0.00,,2013-05-14 21:03:00,
2013-05-14 15:12:00,72.0,33.0,-100.00,South,172,11.0,22.0,24,0.00,,,0.00,,2013-05-14 21:12:00,
2013-05-14 15:22:00,72.0,33.0,-100.00,South,172,11.0,22.0,24,0.00,,,0.00,,2013-05-14 21:22:00,
2013-05-14 15:33:00,72.0,33.0,-100.00,South,172,11.0,22.0,24,0.00,,,0.00,,2013-05-14 21:33:00,
2013-05-14 15:34:00,71.0,30.0,-100.00,SSE,160,11.0,24.0,22,0.00,,,0.00,,2013-05-14 21:34:00,
2013-05-14 16:03:00,71.0,30.0,-100.00,SSE,160,11.0,24.0,22,0.00,,,0.00,,2013-05-14 22:03:00,
2013-05-14 16:13:00,71.0,30.0,-100.00,SSE,160,11.0,24.0,22,0.00,,,0.00,,2013-05-14 22:13:00,
2013-05-14 16:24:00,71.0,30.0,-100.00,SSE,160,11.0,24.0,22,0.00,,,0.00,,2013-05-14 22:24:00,
2013-05-14 17:03:00,71.0,27.0,-100.00,South,178,11.0,22.0,19,0.00,,,0.00,,2013-05-14 23:03:00,
2013-05-14 17:12:00,71.0,27.0,-100.00,South,178,11.0,22.0,19,0.00,,,0.00,,2013-05-14 23:12:00,
2013-05-14 17:21:00,71.0,27.0,-100.00,South,178,11.0,22.0,19,0.00,,,0.00,,2013-05-14 23:21:00,
2013-05-14 17:31:00,71.0,27.0,-100.00,South,178,11.0,22.0,19,0.00,,,0.00,,2013-05-14 23:31:00,
2013-05-14 18:01:00,73.0,31.0,-100.00,South,180,7.0,15.0,21,0.00,,,0.00,,2013-05-15 00:01:00,
2013-05-14 18:11:00,73.0,31.0,-100.00,South,180,7.0,15.0,21,0.00,,,0.00,,2013-05-15 00:11:00,
2013-05-14 18:21:00,73.0,31.0,-100.00,South,180,7.0,15.0,21,0.00,,,0.00,,2013-05-15 00:21:00,
2013-05-14 18:32:00,73.0,31.0,-100.00,South,180,7.0,15.0,21,0.00,,,0.00,,2013-05-15 00:32:00,
2013-05-14 18:52:00,72.0,23.0,-100.00,SSE,157,8.0,13.0,16,0.00,,,0.00,,2013-05-15 00:52:00,
2013-05-14 19:01:00,72.0,23.0,-100.00,SSE,157,8.0,13.0,16,0.00,,,0.00,,2013-05-15 01:01:00,
2013-05-14 20:01:00,67.0,31.0,-100.00,South,169,12.0,21.0,26,0.00,,,0.00,,2013-05-15 02:01:00,
2013-05-14 20:11:00,67.0,31.0,-100.00,South,169,12.0,21.0,26,0.00,,,0.00,,2013-05-15 02:11:00,
2013-05-14 20:21:00,67.0,31.0,-100.00,South,169,12.0,21.0,26,0.00,,,0.00,,2013-05-15 02:21:00,
2013-05-14 20:31:00,67.0,31.0,-100.00,South,169,12.0,21.0,26,0.00,,,0.00,,2013-05-15 02:31:00,
2013-05-14 21:01:00,68.0,27.0,-100.00,SSW,195,6.0,18.0,21,0.00,,,0.00,,2013-05-15 03:01:00,
2013-05-14 21:12:00,68.0,27.0,-100.00,SSW,195,6.0,18.0,21,0.00,,,0.00,,2013-05-15 03:12:00,
2013-05-14 21:21:00,68.0,27.0,-100.00,SSW,195,6.0,18.0,21,0.00,,,0.00,,2013-05-15 03:21:00,
2013-05-14 21:33:00,68.0,27.0,-100.00,SSW,195,6.0,18.0,21,0.00,,,0.00,,2013-05-15 03:33:00,
2013-05-14 22:03:00,67.0,27.0,-100.00,SSW,208,3.0,14.0,22,0.00,,,0.00,,2013-05-15 04:03:00,
2013-05-14 22:12:00,67.0,27.0,-100.00,SSW,208,3.0,14.0,22,0.00,,,0.00,,2013-05-15 04:12:00,
2013-05-14 22:23:00,67.0,27.0,-100.00,SSW,208,3.0,14.0,22,0.00,,,0.00,,2013-05-15 04:23:00,
2013-05-14 22:32:00,67.0,27.0,-100.00,SSW,208,3.0,14.0,22,0.00,,,0.00,,2013-05-15 04:32:00,
2013-05-14 23:02:00,65.0,30.0,-100.00,SW,224,7.0,11.0,27,0.00,,,0.00,,2013-05-15 05:02:00,
2013-05-14 23:12:00,65.0,30.0,-100.00,SW,224,7.0,11.0,27,0.00,,,0.00,,2013-05-15 05:12:00,
2013-05-14 23:22:00,65.0,30.0,-100.00,SW,224,7.0,11.0,27,0.00,,,0.00,,2013-05-15 05:22:00,
2013-05-14 23:32:00,65.0,30.0,-100.00,SW,224,7.0,11.0,27,0.00,,,0.00,,2013-05-15 05:32:00,
2013-05-14 23:52:00,64.0,33.0,-100.00,NW,312,2.0,19.0,31,0.00,,,0.00,,2013-05-15 05:52:00,